Chillicothe, MO

1:30 AM CST on November 20, 2019 (GMT -0600)
Chillicothe

Weather History for KCDJ - September, 2019

Change the Weather History Date:

Thursday, September 5, 2019

  Actual Average (WUND) Record (WUND)
Temperature  
Mean Temperature 72 °F -  
Max Temperature 86 °F - - (-1)
Min Temperature 60 °F - - (-1)
Cooling Degree Days 7    
Growing Degree Days 22 (Base 50)    
Moisture  
Dew Point 66 °F    
Average Humidity 80    
Maximum Humidity 93    
Minimum Humidity 64    
Precipitation  
Precipitation 0.00 in - - ()
Sea Level Pressure  
Sea Level Pressure 30.05 in    
Wind  
Wind Speed 3 mph (SSE)    
Max Wind Speed 16 mph    
Max Gust Speed 25 mph    
Averages and records for this station are not official NWS values.
T = Trace of Precipitation, MM = Missing Value Source: NWS Daily Summary

Daily Weather History Graph

Daily Weather History Graph

Search for Another Location

Airport or City:

Astronomy

Sep. 05, 2019 Rise Set
Actual Time 6:45 AM CDT 7:39 PM CDT
Civil Twilight 6:18 AM CDT 8:06 PM CDT
Nautical Twilight 5:45 AM CDT 8:39 PM CDT
Astronomical Twilight 5:11 AM CDT 9:13 PM CDT
Moon 1:52 PM CDT (9/5) 11:56 PM CDT (9/5)
Length of Visible Light 13h 48m
Length of Day
12h 53m
Waxing Crescent, 45% of the Moon is Illuminated
Sep 5
Waxing Crescent
Sep 5
First Quarter
Sep 13
Full
Sep 21
Last Quarter
Sep 28
New

Hourly Weather History & Observations

Time (CDT) Temp. Heat Index Dew Point Humidity Pressure Visibility Wind Dir Wind Speed Gust Speed Precip Events Conditions
12:52 AM 63.0 °F - 59.0 °F 87% 30.13 in - Calm Calm - N/A   Unknown
1:52 AM 64.0 °F - 59.0 °F 84% 30.14 in - Calm Calm - N/A   Unknown
2:52 AM 62.1 °F - 59.0 °F 90% 30.12 in - Calm Calm - N/A   Unknown
3:52 AM 61.0 °F - 59.0 °F 93% 30.12 in - Calm Calm - N/A   Unknown
4:52 AM 61.0 °F - 59.0 °F 93% 30.12 in - Calm Calm - N/A   Unknown
5:52 AM 60.1 °F - 57.9 °F 93% 30.12 in - Calm Calm - N/A   Unknown
6:52 AM 62.1 °F - 59.0 °F 90% 30.13 in - Calm Calm - N/A   Unknown
7:52 AM 64.0 °F - 61.0 °F 90% 30.14 in - SE 3.5 mph - N/A   Unknown
8:52 AM 68.0 °F - 62.1 °F 81% 30.12 in - SE 5.8 mph - N/A   Unknown
9:52 AM 71.1 °F - 64.0 °F 78% 30.12 in - Variable 5.8 mph - N/A   Unknown
10:52 AM 73.9 °F - 64.0 °F 71% 30.11 in - South 8.1 mph - N/A   Unknown
11:52 AM 77.0 °F - 66.0 °F 69% 30.10 in - SSE 9.2 mph 18.4 mph N/A   Unknown
12:52 PM 80.1 °F 82.3 °F 66.9 °F 64% 30.07 in - SSE 11.5 mph - N/A   Unknown
1:52 PM 82.0 °F 85.5 °F 69.1 °F 65% 30.04 in - SSE 10.4 mph 19.6 mph N/A   Unknown
2:52 PM 84.0 °F 89.0 °F 71.1 °F 65% 30.02 in - SE 6.9 mph - N/A   Unknown
3:52 PM 84.9 °F 90.7 °F 72.0 °F 65% 30.01 in - SSE 8.1 mph - N/A   Unknown
4:52 PM 84.9 °F 91.4 °F 73.0 °F 67% 29.99 in - South 6.9 mph - N/A   Unknown
5:52 PM 82.9 °F 90.2 °F 75.0 °F 77% 29.92 in - South 16.1 mph 25.3 mph N/A   Unknown
6:52 PM 84.0 °F 91.2 °F 73.9 °F 72% 29.96 in - Calm Calm - N/A   Unknown
7:52 PM 81.0 °F 86.2 °F 73.9 °F 79% 29.95 in - Calm Calm - N/A   Unknown
8:52 PM 79.0 °F - 73.9 °F 84% 29.95 in - South 3.5 mph - N/A   Unknown
9:52 PM 78.1 °F - 73.0 °F 84% 29.95 in - South 4.6 mph - N/A   Unknown
10:52 PM 73.9 °F - 72.0 °F 93% 29.95 in - South 3.5 mph - N/A   Unknown
11:52 PM 75.0 °F - 72.0 °F 90% 29.94 in - South 4.6 mph - N/A   Unknown